EXS1TL EGGW-LEAL

Flight info

Callsign EXS1TL
Flight time N/A
Altitude 37000
Route RODN1C RODNI N27 ICTAM Q63 CPT N859 VAPID UN859 SOPIL BALAN LMG PIMQO AGN ANETO POSSY XIMPE RIMES N860 VLC VLC3L
Aircraft B738/M-V/N

Departure

Time 2026-05-01 10:39
Airport London Luton Airport (EGGW)

Arrival

Time N/A
Airport Alicante-Elche Miguel Hernández Airport (LEAL)
Time Latitude Longitude Altitude Speed Heading
2026-05-01 10:07 51.87967 -0.37260 534 ft 0 kts 161°
2026-05-01 10:09 51.87962 -0.37257 534 ft 0 kts 161°
2026-05-01 10:11 51.87964 -0.37258 534 ft 0 kts 161°
2026-05-01 10:30 51.87965 -0.37259 534 ft 1 kts 161°
2026-05-01 10:31 51.87997 -0.37285 534 ft 3 kts 136°
2026-05-01 10:31 51.88010 -0.37334 534 ft 1 kts 72°
2026-05-01 10:32 51.88008 -0.37343 534 ft 0 kts 72°
2026-05-01 10:33 51.88010 -0.37333 534 ft 3 kts 72°
2026-05-01 10:34 51.88019 -0.37288 534 ft 4 kts 72°
2026-05-01 10:34 51.88028 -0.37243 534 ft 4 kts 72°
2026-05-01 10:34 51.88037 -0.37200 534 ft 4 kts 72°
2026-05-01 10:35 51.87977 -0.37110 534 ft 14 kts 161°
2026-05-01 10:35 51.87866 -0.37051 534 ft 19 kts 161°
2026-05-01 10:35 51.87744 -0.36987 534 ft 15 kts 161°
2026-05-01 10:35 51.87650 -0.36944 534 ft 12 kts 190°
2026-05-01 10:36 51.87585 -0.37183 534 ft 12 kts 254°
2026-05-01 10:36 51.87568 -0.37310 534 ft 11 kts 274°
2026-05-01 10:36 51.87573 -0.37432 534 ft 11 kts 230°
2026-05-01 10:37 51.87509 -0.37500 534 ft 11 kts 236°
2026-05-01 10:37 51.87465 -0.37730 534 ft 10 kts 254°
2026-05-01 10:37 51.87445 -0.37842 534 ft 11 kts 253°
2026-05-01 10:38 51.87423 -0.37956 534 ft 11 kts 246°
2026-05-01 10:38 51.87380 -0.38050 534 ft 11 kts 205°
2026-05-01 10:38 51.87311 -0.38101 534 ft 11 kts 205°
2026-05-01 10:38 51.87249 -0.38071 534 ft 11 kts 104°
2026-05-01 10:39 51.87271 -0.37912 534 ft 25 kts 74°
2026-05-01 10:39 51.87394 -0.37206 534 ft 104 kts 74°
2026-05-01 10:39 51.87645 -0.35712 605 ft 163 kts 73°
2026-05-01 10:39 51.87895 -0.33920 1560 ft 157 kts 77°
2026-05-01 10:40 51.88101 -0.32234 2562 ft 154 kts 71°
2026-05-01 10:40 51.88438 -0.30528 3034 ft 167 kts 68°
2026-05-01 10:40 51.88860 -0.28653 3389 ft 187 kts 67°
2026-05-01 10:40 51.89305 -0.26570 3694 ft 211 kts 75°
2026-05-01 10:41 51.89234 -0.24061 3953 ft 239 kts 105°
2026-05-01 10:41 51.88351 -0.21650 4256 ft 263 kts 133°
2026-05-01 10:41 51.84930 -0.19605 5601 ft 273 kts 189°
2026-05-01 10:42 51.83197 -0.20812 6335 ft 273 kts 221°
2026-05-01 10:42 51.82134 -0.23278 7053 ft 270 kts 253°
2026-05-01 10:42 51.82047 -0.26258 7776 ft 267 kts 285°
2026-05-01 10:42 51.82693 -0.29074 8534 ft 269 kts 290°
2026-05-01 10:43 51.82951 -0.32096 9241 ft 277 kts 267°
2026-05-01 10:43 51.82574 -0.35166 9966 ft 282 kts 258°
2026-05-01 10:43 51.82111 -0.38269 10638 ft 287 kts 260°
2026-05-01 10:43 51.81677 -0.41475 11159 ft 298 kts 260°
2026-05-01 10:44 51.81222 -0.44833 11468 ft 316 kts 259°
2026-05-01 10:44 51.80700 -0.48364 11734 ft 335 kts 258°
2026-05-01 10:44 51.80110 -0.52120 11987 ft 353 kts 257°
2026-05-01 10:44 51.79494 -0.56067 12275 ft 369 kts 258°
2026-05-01 10:45 51.78891 -0.60122 12797 ft 376 kts 258°
2026-05-01 10:45 51.78261 -0.64251 13455 ft 379 kts 258°
2026-05-01 10:45 51.77622 -0.68392 14115 ft 383 kts 257°
2026-05-01 10:45 51.76970 -0.72597 14774 ft 387 kts 257°
2026-05-01 10:46 51.76071 -0.76699 15425 ft 392 kts 246°
2026-05-01 10:46 51.74673 -0.80517 16075 ft 397 kts 236°
2026-05-01 10:46 51.72964 -0.84032 16704 ft 401 kts 231°
2026-05-01 10:46 51.71074 -0.87353 17321 ft 404 kts 225°
2026-05-01 10:47 51.69011 -0.90459 18037 ft 403 kts 224°
2026-05-01 10:47 51.67048 -0.93518 19073 ft 393 kts 225°
2026-05-01 10:47 51.65768 -0.95560 19683 ft 390 kts 225°
2026-05-01 10:47 51.63182 -0.99689 20504 ft 394 kts 225°
2026-05-01 10:48 51.61867 -1.01794 20864 ft 396 kts 224°
2026-05-01 10:48 51.59903 -1.04919 21430 ft 399 kts 224°
2026-05-01 10:48 51.57920 -1.08059 22004 ft 401 kts 223°
2026-05-01 10:48 51.55942 -1.11182 22505 ft 405 kts 223°
2026-05-01 10:49 51.53901 -1.14404 23014 ft 408 kts 222°
2026-05-01 10:49 51.51866 -1.17578 23497 ft 410 kts 219°
2026-05-01 10:49 51.49551 -1.20119 23956 ft 407 kts 203°
2026-05-01 10:49 51.46837 -1.21499 24437 ft 404 kts 186°
2026-05-01 10:50 51.44081 -1.21553 24862 ft 402 kts 170°
2026-05-01 10:50 51.41385 -1.20281 25278 ft 401 kts 153°
2026-05-01 10:50 51.39048 -1.17844 25710 ft 402 kts 141°
2026-05-01 10:50 51.36794 -1.15266 26080 ft 406 kts 146°
2026-05-01 10:51 51.34440 -1.12735 26449 ft 409 kts 139°
2026-05-01 10:51 51.32365 -1.09617 26847 ft 411 kts 137°
2026-05-01 10:51 51.29984 -1.07053 27213 ft 415 kts 154°
2026-05-01 10:51 51.27283 -1.05404 27562 ft 419 kts 160°
2026-05-01 10:52 51.24518 -1.03843 27920 ft 421 kts 158°
2026-05-01 10:52 51.21807 -1.02028 28242 ft 424 kts 155°
2026-05-01 10:52 51.19122 -1.00068 28590 ft 426 kts 154°
2026-05-01 10:52 51.16426 -0.98057 28886 ft 429 kts 154°
2026-05-01 10:53 51.13725 -0.96050 29219 ft 431 kts 154°
2026-05-01 10:53 51.10991 -0.94026 29523 ft 433 kts 154°
2026-05-01 10:53 51.08233 -0.92015 29800 ft 436 kts 155°
2026-05-01 10:53 51.05460 -0.90009 30099 ft 438 kts 155°
2026-05-01 10:54 51.02712 -0.88030 30344 ft 441 kts 155°
2026-05-01 10:54 50.99866 -0.85986 30612 ft 443 kts 155°
2026-05-01 10:54 50.97058 -0.83972 30986 ft 443 kts 155°
2026-05-01 10:54 50.94296 -0.81993 31288 ft 444 kts 155°
2026-05-01 10:55 50.91475 -0.79974 31558 ft 445 kts 155°
2026-05-01 10:55 50.88637 -0.77945 31858 ft 446 kts 155°
2026-05-01 10:55 50.85844 -0.75831 32194 ft 446 kts 151°
2026-05-01 10:55 50.83154 -0.73348 32463 ft 447 kts 147°
2026-05-01 10:56 50.80532 -0.70705 32748 ft 447 kts 146°
2026-05-01 10:56 50.77911 -0.68022 33073 ft 447 kts 146°
2026-05-01 10:56 50.75302 -0.65364 33346 ft 448 kts 146°
2026-05-01 10:56 50.72697 -0.62719 33627 ft 449 kts 146°
2026-05-01 10:57 50.70075 -0.60065 33917 ft 449 kts 146°